Location: Llanallgo
(53.3333°N, 4.2500°W)
Time: 16:07:34
(UTC+00:00)

Daily predictions for brighter satellites

Satellite Brightness Start Highest point End
(mag) Time Altitude Azimuth Time Altitude Azimuth Time Altitude Azimuth
Cosmos 1980 4.3 17:09:00 10° NNW 17:14:15 36° NE 17:19:29 10° ESE
H-2A R/B 4.1 17:11:06 10° N 17:14:49 27° WNW 17:18:33 10° WSW
Cosmos 1242 Rocket 4.1 17:14:14 10° SE 17:16:34 17° E 17:18:55 10° NE
YAOGAN 6 3.6 17:14:31 10° ESE 17:17:38 26° ENE 17:20:44 10° N
CORIOLIS 4.2 17:12:38 10° SSE 17:17:56 63° ENE 17:23:15 10° N
NOAA 12 4.2 17:14:23 10° SE 17:19:26 53° ENE 17:24:33 10° N
Cosmos 2360 Rocket 3.2 17:13:59 10° NW 17:19:29 53° WSW 17:24:56 10° S
Cosmos 1898 Rocket 3.6 17:15:02 10° SSW 17:20:22 88° ESE 17:25:43 10° NNE
SMAP 3.0 17:16:28 10° SSE 17:21:06 73° ENE 17:25:46 10° NNW
Cosmos 2228 3.5 17:16:46 10° NNW 17:21:07 67° W 17:25:23 10° S
SJ 16-02 1.5 17:18:01 10° SSW 17:22:26 82° WNW 17:26:55 10° NNE
IRS-1C Rocket 4.1 17:17:12 10° SSE 17:22:26 76° ENE 17:27:43 10° NNW
H-2A R/B 2.7 17:18:41 10° SSE 17:22:30 73° ENE 17:26:25 10° N
Cosmos 1689 Rocket 2.1 17:19:43 10° NNE 17:22:41 81° WNW 17:25:38 10° SSW
COSMOS 2428 2.7 17:20:15 10° NNW 17:26:02 74° NE 17:31:47 10° SE
SL-24 R/B - RUBIN 2 4.3 17:21:03 10° SW 17:26:29 88° NW 17:32:40 10° NE
Cosmos 2219 Rocket 2.2 17:22:08 10° NNW 17:27:52 77° NE 17:33:33 10° SE
Cosmos 1937 Rocket 3.5 17:24:31 10° SSW 17:29:46 81° ESE 17:35:06 10° NNE
CZ-4 R/B 2.3 17:28:05 10° ESE 17:31:32 28° ENE 17:35:04 10° N
COSMOS 2487 2.5 17:28:26 10° SSW 17:31:55 78° WNW 17:35:25 10° NNE
Cosmos 2184 Rocket 4.1 17:30:55 10° SSE 17:36:54 55° E 17:42:54 10° NNE
Cosmos 1892 Rocket 3.6 17:34:44 10° S 17:39:14 85° E 17:43:43 10° NNE
Cosmos 1241 Rocket 4.5 17:33:24 10° NW 17:39:35 65° NE 17:45:47 10° SE
Cosmos 1812 Rocket 3.9 17:39:04 10° N 17:43:22 43° ENE 17:47:37 10° SE
ATLAS 5 CENTAUR R/B 3.0 17:41:18 10° NW 17:44:03 33° NNE 17:49:39 12° E
Cosmos 2154 Rocket 4.4 17:39:00 10° SSE 17:44:50 42° E 17:50:40 10° NNE
Cosmos 1125 Rocket 4.3 17:42:14 10° SSE 17:46:42 30° ESE 17:50:56 11° NE
COBE Rocket 4.2 17:42:06 10° N 17:47:13 80° WNW 17:52:24 10° SSW
Alouette 2 Rocket 4.1 17:51:02 10° NNW 17:55:19 84° WSW 18:01:40 10° SSE
Okean 1-7 Rocket 3.8 17:51:22 10° SSW 17:55:44 74° W 18:00:11 10° N
YAOGAN 1 3.0 17:52:00 10° SE 17:56:01 38° ENE 18:00:03 10° N
Cosmos 1269 Rocket 4.1 17:53:10 10° NNW 17:58:24 54° ENE 18:03:33 10° SE
Envisat 3.0 17:54:52 10° SSE 17:59:57 86° WSW 18:05:05 10° NNW
Cosmos 2058 Rocket 4.2 17:56:28 10° NNW 18:00:40 47° W 18:04:51 10° SSW
Cosmos 1048 Rocket 4.2 17:58:05 10° NNW 18:03:16 75° WSW 18:08:22 10° SSE
Cosmos-2242 3.8 18:00:24 10° N 18:04:17 30° ENE 18:08:06 10° SE
CZ-4C R/B 3.1 17:58:05 10° NW 18:05:02 79° SW 18:13:07 10° SE
NOSS 2-1 (E) 4.2 18:00:49 10° NW 18:05:35 58° NE 18:12:10 10° ESE
Cosmos 2074 Rocket 4.0 18:01:29 10° S 18:07:47 88° E 18:14:08 10° N
CSL-04 Debris 4.2 18:03:25 10° SE 18:08:38 54° ENE 18:13:54 10° N
Cosmos 2082 Rocket 4.2 18:05:26 10° WNW 18:09:23 19° NNW 18:13:20 10° NNE
PSLV R/B 4.4 18:07:36 10° N 18:11:38 60° WNW 18:15:38 10° SSW
Meteor 2-10 Rocket 4.1 18:06:54 10° N 18:11:57 36° ENE 18:16:46 10° SE
CZ-2D R/B 3.7 18:08:39 10° SE 18:12:11 37° ENE 18:15:45 10° N
Starlink AQ 4.1 18:09:58 10° SSW 18:12:29 26° SSE 18:13:16 23° ESE
Starlink AR 3.8 18:11:27 10° SSW 18:13:34 24° SSE 18:13:57 23° SE
Cosmos 1602 Rocket 3.6 18:10:27 10° S 18:14:46 58° E 18:19:04 10° NNE
Cosmos 2333 Rocket 3.1 18:09:18 10° NW 18:14:53 53° WSW 18:20:23 10° S
Starlink AS 4.0 18:12:27 10° SSW 18:14:59 27° SSE 18:15:42 24° SE
Starlink BA 4.0 18:12:40 10° SSW 18:15:12 27° SSE 18:15:54 24° SE
Starlink AU 4.0 18:12:52 10° SSW 18:15:25 27° SSE 18:16:06 24° SE
Starlink AT 4.0 18:13:06 10° SSW 18:15:38 28° SSE 18:16:20 25° SE
Cosmos 1674 3.8 18:12:16 10° SSW 18:15:50 43° WNW 18:19:25 10° N
Starlink BB 4.0 18:13:18 10° SSW 18:15:51 28° SSE 18:16:32 25° SE
Starlink BC 4.0 18:13:32 10° SSW 18:16:05 28° SSE 18:16:45 25° SE
ATLAS CENTAUR R/B 3.9 18:10:29 10° SW 18:16:06 81° SSE 18:28:23 17° ENE
Cosmos 372 Rocket 3.9 18:11:01 10° SSW 18:16:09 84° ESE 18:21:15 11° NNE
Starlink BK 4.0 18:13:45 10° SSW 18:16:18 28° SSE 18:16:58 25° SE
Starlink AY 4.0 18:13:58 10° SSW 18:16:32 28° SSE 18:17:11 25° SE
Starlink AW 4.0 18:14:11 10° SSW 18:16:44 28° SSE 18:17:23 25° SE
Starlink BJ 3.9 18:14:22 10° SSW 18:16:55 28° SSE 18:17:34 25° SE
Cosmos 2237 Rocket 2.1 18:11:16 10° NNW 18:16:56 74° NE 18:22:34 10° SE
Starlink AV 3.9 18:14:34 10° SSW 18:17:08 28° SSE 18:17:46 25° SE
Starlink BD 3.9 18:14:48 10° SSW 18:17:22 28° SSE 18:18:00 25° SE
Starlink BE 3.9 18:15:00 10° SSW 18:17:35 28° SSE 18:18:13 26° SE
Starlink BM 3.9 18:15:14 10° SSW 18:17:48 28° SSE 18:18:25 26° SE
Starlink AX 3.9 18:15:27 10° SSW 18:18:01 28° SSE 18:18:38 26° SE
Starlink BH 3.9 18:15:40 10° SW 18:18:14 28° SSE 18:18:51 26° SE
Starlink AZ 3.9 18:15:53 10° SW 18:18:28 29° SSE 18:19:03 26° SE
Starlink BG 3.9 18:16:07 10° SW 18:18:41 29° SSE 18:19:16 26° SE
Starlink BF 3.9 18:16:19 10° SW 18:18:54 29° SSE 18:19:29 26° SE
Starlink BL 3.9 18:16:30 10° SW 18:19:06 29° SSE 18:19:41 26° SE
COSMO-SKYMED 1 2.7 18:14:50 10° NNE 18:19:07 52° E 18:23:21 10° S
Starlink AH 3.9 18:16:44 10° SW 18:19:19 29° SSE 18:19:53 27° SE
Starlink AC 3.9 18:16:56 10° SW 18:19:32 29° SSE 18:20:06 27° SE
Cosmos 1340 Rocket 2.7 18:15:43 10° NNW 18:19:41 89° ENE 18:23:39 10° SSE
Starlink X 3.9 18:17:10 10° SW 18:19:45 29° SSE 18:20:18 27° SE
CZ-4B R/B 4.2 18:18:31 10° NW 18:19:46 12° WNW 18:20:59 10° W
Cosmos 1300 3.0 18:16:02 10° NNW 18:19:52 70° W 18:23:39 10° S
Starlink AE 3.9 18:17:22 10° SW 18:19:58 29° SSE 18:20:32 27° SE
Starlink Z 3.9 18:17:35 10° SW 18:20:11 29° SSE 18:20:44 27° SE
Starlink AK 3.9 18:17:49 10° SW 18:20:25 29° SSE 18:20:57 27° SE
Starlink AL 3.8 18:18:02 10° SW 18:20:38 29° SSE 18:21:10 27° SE
Starlink AD 3.8 18:18:14 10° SW 18:20:50 30° SSE 18:21:22 27° SE
Starlink Y 3.8 18:18:41 10° SW 18:21:17 30° SSE 18:21:48 28° SE
Starlink AG 3.8 18:18:54 10° SW 18:21:30 30° SSE 18:22:00 28° SE
Starlink W 3.8 18:19:05 10° SW 18:21:43 30° SSE 18:22:13 28° SE
Starlink AJ 3.8 18:19:19 10° SW 18:21:56 30° SSE 18:22:25 28° SE
Starlink AM 3.8 18:19:44 10° SW 18:22:22 30° SSE 18:22:50 28° SE
Starlink AP 3.8 18:19:57 10° SW 18:22:35 30° SSE 18:23:03 28° SE
Starlink AA 3.8 18:20:11 10° SW 18:22:48 30° SSE 18:23:16 29° SE
Starlink AF 3.8 18:20:25 10° SW 18:23:02 30° SSE 18:23:30 29° SE
Starlink AB 3.8 18:20:38 10° SW 18:23:16 30° SSE 18:23:42 29° SE
Starlink AN 3.8 18:20:50 10° SW 18:23:28 31° SSE 18:23:54 29° SE
Nadezhda 3 Rocket 4.1 18:17:30 10° NNW 18:23:48 83° W 18:30:07 10° S
ADEOS Rocket 4.0 18:19:51 12° NE 18:24:39 28° E 18:30:29 10° SSE
Meteor 1-24 Rocket 3.7 18:19:39 10° SSW 18:24:58 78° WNW 18:30:26 10° NNE
Okean-O 3.4 18:21:53 10° S 18:26:14 56° W 18:30:38 10° NNW
Cosmos 1758 Rocket 3.9 18:27:29 10° SSE 18:31:31 40° E 18:33:08 28° NE
Meteor 2-5 Rocket 4.4 18:26:29 10° SSW 18:31:54 55° WNW 18:37:25 10° N
Starlink T 3.6 18:29:36 10° SW 18:32:17 34° SSE 18:32:25 34° SSE
SL-14 R/B 3.4 18:28:17 10° SSW 18:32:17 78° W 18:36:18 10° N
Starlink N 3.6 18:30:43 10° SW 18:33:24 35° SSE 18:33:31 35° SSE
Cosmos 1727 Rocket 4.4 18:28:17 10° N 18:34:03 38° ENE 18:39:47 10° SE
Starlink Q 3.6 18:32:09 10° SW 18:34:51 35° SSE 18:34:54 35° SSE
Cosmos 1271 Rocket 3.3 18:32:02 10° SSW 18:35:42 55° WNW 18:39:25 10° N
Cosmos 2298 Rocket 4.2 18:30:29 10° SSW 18:35:47 72° WNW 18:40:46 12° NNE
Starlink P 3.6 18:33:22 10° SW 18:36:05 36° SSE 18:36:06 36° SSE
Cosmos 1455 2.5 18:32:46 10° N 18:36:27 42° ENE 18:36:37 42° E
Timation 2 Rocket 3.9 18:30:39 10° SSW 18:36:45 77° ESE 18:41:40 18° NE
SL-16 R/B 2.4 18:31:20 10° NNW 18:36:52 48° NE 18:39:50 26° ESE
Starlink U 3.6 18:34:36 10° SW 18:37:18 37° SSE 18:37:18 37° SSE
Cosmos 1626 Rocket 3.8 18:33:41 10° SSW 18:38:00 70° WNW 18:42:21 10° N
CSL-04 Rocket 3.6 18:32:57 10° SSE 18:38:27 84° ENE 18:44:03 10° NNW
Starlink B 3.6 18:35:50 10° SW 18:38:31 37° SSE 18:38:31 37° SSE
Cosmos 1939 Rocket 2.7 18:37:02 10° SSE 18:40:54 71° ENE 18:44:52 10° N
Cosmos 494 Rocket 4.4 18:37:28 10° NNW 18:42:33 63° WSW 18:47:34 10° S
USA 267 3.3 18:38:39 26° ENE 18:42:36 74° NNW 18:49:08 10° W
Starlink D 3.6 18:40:03 10° SW 18:42:39 39° SSE 18:42:39 39° SSE
SKYMED 3 4.5 18:38:36 10° NNE 18:42:59 86° ESE 18:47:21 10° SSW
Ariane Rocket 3.2 18:38:29 10° SE 18:43:19 48° ENE 18:48:13 10° N
Starlink S 3.6 18:41:21 10° SW 18:43:55 39° S 18:43:55 39° S
Cosmos 2219 3.5 18:39:39 10° S 18:44:58 45° ESE 18:46:53 33° ENE
Starlink C 3.6 18:42:38 10° SW 18:45:09 39° S 18:45:09 39° S
H-2A R/B 2.8 18:46:39 30° NE 18:46:39 30° NE 18:50:31 10° N
ATLAS 5 CENTAUR R/B 2.3 18:42:16 10° WSW 18:46:36 51° NNW 18:49:06 26° NNE
Cosmos 1626 2.7 18:43:05 10° SSW 18:46:45 58° WNW 18:50:14 11° N
Starlink E 3.6 18:43:57 10° SW 18:46:27 40° S 18:46:27 40° S
Cosmos 2341 Rocket 4.0 18:40:32 10° S 18:46:51 68° E 18:53:10 10° NNE
Starlink J 3.6 18:45:16 10° SW 18:47:44 40° S 18:47:44 40° S
Starlink V 3.6 18:46:34 10° SW 18:49:00 40° S 18:49:00 40° S
Starlink H 3.7 18:47:55 10° SW 18:50:17 39° S 18:50:17 39° S
YAOGAN 6 4.4 18:47:39 10° SSW 18:51:02 34° W 18:54:26 10° NNW
Cosmos 1242 Rocket 3.5 18:47:44 10° SW 18:51:07 45° WNW 18:54:03 13° N
ATLAS CENTAUR R/B 2.1 18:47:58 10° NW 18:51:45 35° NNE 18:51:45 35° NNE
Starlink F 3.7 18:49:15 10° SW 18:51:36 39° S 18:51:36 39° S
SL-8 Rocket 4.0 18:46:30 10° SSE 18:52:38 56° E 18:58:46 10° NNE
Starlink G 3.7 18:50:35 10° SW 18:52:53 39° SSW 18:52:53 39° SSW
Starlink L 3.8 18:51:55 10° SW 18:54:11 39° SSW 18:54:11 39° SSW
Cosmos 2251 Rocket 3.7 18:50:01 10° NNW 18:55:10 50° ENE 18:56:25 41° E
Starlink A 3.8 18:53:15 10° SW 18:55:29 38° SSW 18:55:29 38° SSW
Starlink R 3.9 18:54:37 10° SW 18:56:48 38° SSW 18:56:48 38° SSW
CZ-2C R/B 4.0 18:58:30 32° NE 18:58:30 32° NE 19:02:40 10° N
Cosmos 1825 Rocket 3.4 18:53:25 10° S 18:57:43 63° E 18:58:41 48° NE
Cosmos 1980 4.2 18:53:03 10° NW 18:58:41 60° WSW 19:04:15 10° SSE
Starlink K 3.9 18:55:55 10° SW 18:58:05 37° SSW 18:58:05 37° SSW
Starlink M 4.0 18:57:13 10° SW 18:59:20 37° SSW 18:59:20 37° SSW
SJ 16-02 3.9 18:58:54 10° W 19:01:47 17° NW 19:04:40 10° N
Cosmos 2297 Rocket 2.5 18:56:37 10° S 19:01:56 44° ESE 19:02:19 43° E
DMSP B5D1-3 4.4 19:01:09 33° NE 19:03:21 60° ESE 19:08:23 10° S
USA 32 4.0 18:58:49 10° S 19:04:03 84° W 19:09:20 10° N
Cosmos 1607 3.9 18:58:26 10° SW 19:04:35 83° NW 19:07:39 32° NE
NOSS 2-1 (C) 4.4 19:00:54 10° NW 19:05:53 72° SW 19:11:34 15° SE
CZ-4 R/B 2.8 19:02:38 10° SSW 19:06:26 39° W 19:10:20 10° NNW
SKYMED 2 4.1 19:03:02 11° N 19:07:11 58° WNW 19:11:26 10° SSW
Cosmos 2227 Rocket 2.4 19:08:26 10° S 19:13:41 48° ESE 19:13:41 48° ESE
Cosmos 2218 Rocket 3.9 19:15:16 10° S 19:21:35 74° E 19:27:59 10° NNE
Cosmos 1943 4.2 19:21:46 10° NNW 19:25:48 31° NNE 19:25:48 31° NNE
Cosmos 1125 Rocket 4.1 19:23:28 10° SW 19:28:33 53° WNW 19:31:15 26° N
YAOGAN 1 4.4 19:28:21 10° SSW 19:32:11 30° W 19:36:04 10° NNW
Cosmos 864 Rocket 4.3 19:26:23 10° S 19:32:31 79° E 19:38:41 10° NNE
ARGOS 3.5 19:37:10 51° NNE 19:37:10 51° NNE 19:41:22 10° N
Cosmos 724 4.1 19:36:40 10° SW 19:42:37 80° SE 19:42:42 79° ESE
Meteor 1-27 4.3 19:47:55 10° NNW 19:52:45 68° NNW 19:52:45 68° NNW
Cosmos 2082 Rocket 4.4 19:53:23 10° NNW 19:55:52 13° N 19:56:12 13° N
Cosmos 2366 rocket 4.2 19:53:48 10° SSW 19:59:59 69° WNW 20:06:17 10° N
Cosmos 2237 Rocket 4.3 19:56:02 10° NW 20:00:28 24° WSW 20:04:54 10° SSW
ADEOS Rocket 3.3 20:06:42 25° N 20:10:39 73° WNW 20:17:36 10° SSW
SL-16 R/B 3.3 20:15:40 10° NW 20:20:57 40° WSW 20:21:47 38° SW
H-2A R/B 3.5 20:27:16 32° NW 20:27:16 32° NW 20:30:17 10° NNW
USA 267 3.4 20:25:59 64° NNW 20:25:59 64° NNW 20:31:54 10° WNW
Cosmos 2219 4.2 20:23:49 10° WSW 20:28:51 43° WNW 20:28:51 43° WNW
ATLAS CENTAUR R/B 4.1 20:27:01 10° NW 20:27:57 16° NW 20:27:57 16° NW
ATLAS 5 CENTAUR R/B 3.8 20:28:10 10° WNW 20:30:39 23° NW 20:30:39 23° NW
Cosmos 2297 Rocket 3.6 20:40:35 10° WSW 20:44:11 34° W 20:44:11 34° W
Cosmos 2227 Rocket 3.9 20:52:40 10° WSW 20:55:34 27° W 20:55:34 27° W
